OneWeb SL0507

operational
NORAD ID: 54125 Int'l Des: 2022-138 Owner: ONEWEBN Country: UK Constellation: oneweb
LEOCIRCULARPOLARONEWEB_TYPE

About OneWeb SL0507

Description loading...

Live Position

Loading 3D Globe...

Upcoming Passes

Altitude History

Altitude vs Time

uPlot chart will show altitude changes over time

Two-Line Element Set

1 54125U 22138N 25354.42019528 .00000037 00000-0 61062-4 0 9992
2 54125 87.9194 340.5536 0001927 80.3207 279.8143 13.19725277153278
Epoch: Dec 20, 2025 • Age: 9 hours

Current Status

Altitude 1215.9 km
Velocity 7.25 km/s
Sub-Earth Point -85.52°S, 177.72°E
Launch Date Oct 22, 2022
Age 3.1 years
Type internet

Technical Details

Classification Payload
Mass 148.00 kg
Dry Mass 140.00 kg
Total Mass 148.00 kg
Length 1.30 m
Diameter 1.00 m
Span 5.00 m
Shape Trapezoid+2 pan
Manufacturer ONEWUS
Bus Type ARROW
Phase Status In Orbit
Owner/State ONEWEBN/UK

Large Constellations

Loading constellations...